Location: Berlin
(42.3812°N, 71.6370°W)
Time: 12:44:36
(UTC+00:00)

Cosmos 1943 - Pass Details

Date: 27 February 2026
Orbit: 830 x 850 km, 71.0° (Epoch: 8 March)

Event Time Altitude Azimuth Distance (km) Brightness Sun altitude
Rises 22:53:25 0° 333° (NNW) 3,421 6.6 -4.4°
Reaches altitude 10° 22:55:53 10° 332° (NNW) 2,480 6.0 -4.8°
Maximum altitude 23:01:33 71° 249° (WSW) 893 3.6 -5.9°
Drops below altitude 10° 23:07:09 10° 166° (SSE) 2,454 5.5 -6.9°
Sets 23:09:35 0° 164° (SSE) 3,381 6.2 -7.3°
